Hourly Data Report for September 11, 2006

TORONTO CITY
ONTARIO

43°40'00.000" N
79°24'00.000" W
112.50 m
6158355
71508
XTO

Download Data

Hourly Data (September 2006)
Hourly Data Report for September 11, 2006
TIME
LST
Temp Definition
°C
Dew Point Definition
°C
Rel Hum Definition
%
Precip. Amount Definition
mm

Wind Dir Definition
10's deg

Wind Spd Definition
km/h
Visibility Definition
km
Stn Press Definition
kPa
Hmdx Definition


Wind Chill Definition


Weather Definition


00:00 13.5 6.7 63   LegendMM LegendMM   101.31     LegendNANA
01:00 13.3 7.3 67   LegendMM LegendMM   101.30     LegendNANA
02:00 13.0 7.3 68   LegendMM LegendMM   101.29     LegendNANA
03:00 12.0 5.8 66   LegendMM LegendMM   101.34     LegendNANA
04:00 11.4 5.2 66   LegendMM LegendMM   101.36     LegendNANA
05:00 11.2 5.5 68   LegendMM LegendMM   101.40     LegendNANA
06:00 11.0 5.7 70   LegendMM LegendMM   101.42     LegendNANA
07:00 11.4 5.3 66   LegendMM LegendMM   101.43     LegendNANA
08:00 12.9 6.7 66   LegendMM LegendMM   101.45     LegendNANA
09:00 14.7 9.5 71   LegendMM LegendMM   101.43     LegendNANA
10:00 15.0 10.8 76   LegendMM LegendMM   101.43     LegendNANA
11:00 15.8 11.2 74   LegendMM LegendMM   101.41     LegendNANA
12:00 16.6 12.2 75   LegendMM LegendMM   101.41     LegendNANA
13:00 16.9 12.2 74   LegendMM LegendMM   101.38     LegendNANA
14:00 17.1 10.0 63   LegendMM LegendMM   101.31     LegendNANA
15:00 17.6 8.8 56   LegendMM LegendMM   101.25     LegendNANA
16:00 17.1 8.3 56   LegendMM LegendMM   101.21     LegendNANA
17:00 17.0 8.7 58   LegendMM LegendMM   101.17     LegendNANA
18:00 16.5 8.8 60   LegendMM LegendMM   101.16     LegendNANA
19:00 16.5 8.9 61   LegendMM LegendMM   101.13     LegendNANA
20:00 16.7 9.3 62   LegendMM LegendMM   101.15     LegendNANA
21:00 16.8 9.8 63   LegendMM LegendMM   101.11     LegendNANA
22:00 17.0 10.9 67   LegendMM LegendMM   101.09     LegendNANA
23:00 17.3 10.8 66   LegendMM LegendMM   101.05     LegendNANA

Notes on Data Quality.

Legend

  • E = Estimated
  • M = Missing
  • NA = Not Available*
  • [empty] = Indicates an unobserved value
Date modified: